Time,TemperatureF,DewpointF,PressureIn,WindDirection,WindDirectionDegrees,WindSpeedMPH,WindSpeedGustMPH,Humidity,HourlyPrecipIn,Conditions,Clouds,dailyrainin,SolarRadiationWatts/m^2,SoftwareType,DateUTC
2013-07-25 00:12:00,64.0,46.0,-100.00,NE,52,7.0,8.0,51,-99.99,,,-99.99,0.060000,,2013-07-25 06:12:00,
2013-07-25 00:22:00,63.0,46.0,-100.00,ENE,69,7.0,7.0,53,-99.99,,,-99.99,0.070000,,2013-07-25 06:22:00,
2013-07-25 00:32:00,63.0,46.0,-100.00,ENE,63,9.0,9.0,52,-99.99,,,-99.99,0.080000,,2013-07-25 06:32:00,
2013-07-25 00:42:00,63.0,46.0,-100.00,ENE,65,8.0,9.0,53,-99.99,,,-99.99,0.080000,,2013-07-25 06:42:00,
2013-07-25 00:52:00,63.0,46.0,-100.00,ENE,65,8.0,9.0,53,-99.99,,,-99.99,0.080000,,2013-07-25 06:52:00,
2013-07-25 01:02:00,63.0,46.0,-100.00,ENE,60,8.0,8.0,54,-99.99,,,-99.99,0.010000,,2013-07-25 07:02:00,
2013-07-25 01:22:00,63.0,46.0,-100.00,ENE,61,9.0,9.0,54,-99.99,,,-99.99,0.090000,,2013-07-25 07:22:00,
2013-07-25 01:43:00,62.0,46.0,-100.00,ENE,60,4.0,9.0,56,-99.99,,,-99.99,0.140000,,2013-07-25 07:43:00,
2013-07-25 01:53:00,62.0,46.0,-100.00,ENE,60,4.0,9.0,56,-99.99,,,-99.99,0.140000,,2013-07-25 07:53:00,
2013-07-25 02:12:00,63.0,45.0,-100.00,NE,48,12.0,12.0,51,-99.99,,,-99.99,0.100000,,2013-07-25 08:12:00,
2013-07-25 02:22:00,63.0,45.0,-100.00,NE,48,12.0,12.0,51,-99.99,,,-99.99,0.100000,,2013-07-25 08:22:00,
2013-07-25 02:44:00,60.0,44.0,-100.00,ENE,70,8.0,8.0,56,-99.99,,,-99.99,0.120000,,2013-07-25 08:44:00,
2013-07-25 02:52:00,62.0,46.0,-100.00,ENE,59,8.0,8.0,55,-99.99,,,-99.99,0.110000,,2013-07-25 08:52:00,
2013-07-25 03:02:00,63.0,45.0,-100.00,ENE,65,7.0,8.0,52,-99.99,,,-99.99,0.090000,,2013-07-25 09:02:00,
2013-07-25 03:12:00,63.0,45.0,-100.00,ENE,61,9.0,9.0,51,-99.99,,,-99.99,0.080000,,2013-07-25 09:12:00,
2013-07-25 03:22:00,62.0,45.0,-100.00,ENE,74,7.0,9.0,54,-99.99,,,-99.99,0.070000,,2013-07-25 09:22:00,
2013-07-25 03:33:00,61.0,45.0,-100.00,ENE,66,8.0,8.0,54,-99.99,,,-99.99,0.070000,,2013-07-25 09:33:00,
2013-07-25 03:43:00,62.0,45.0,-100.00,ENE,64,8.0,8.0,54,-99.99,,,-99.99,0.070000,,2013-07-25 09:43:00,
2013-07-25 03:52:00,62.0,45.0,-100.00,ENE,61,8.0,8.0,52,-99.99,,,-99.99,0.080000,,2013-07-25 09:52:00,
2013-07-25 04:12:00,61.0,46.0,-100.00,ENE,63,9.0,9.0,56,-99.99,,,-99.99,0.100000,,2013-07-25 10:12:00,
2013-07-25 04:22:00,61.0,45.0,-100.00,ENE,67,9.0,9.0,56,-99.99,,,-99.99,0.110000,,2013-07-25 10:22:00,
2013-07-25 04:32:00,62.0,45.0,-100.00,ENE,62,9.0,10.0,54,-99.99,,,-99.99,0.130000,,2013-07-25 10:32:00,
2013-07-25 04:53:00,62.0,45.0,-100.00,ENE,58,8.0,9.0,52,-99.99,,,-99.99,0.040000,,2013-07-25 10:53:00,
2013-07-25 05:02:00,62.0,45.0,-100.00,ENE,64,8.0,8.0,54,-99.99,,,-99.99,0.030000,,2013-07-25 11:02:00,
2013-07-25 05:12:00,62.0,45.0,-100.00,ENE,57,8.0,9.0,53,-99.99,,,-99.99,0.080000,,2013-07-25 11:12:00,
2013-07-25 05:22:00,63.0,45.0,-100.00,NE,53,10.0,11.0,51,-99.99,,,-99.99,0.060000,,2013-07-25 11:22:00,
2013-07-25 05:32:00,62.0,45.0,-100.00,ENE,63,8.0,9.0,53,-99.99,,,-99.99,0.070000,,2013-07-25 11:32:00,
2013-07-25 05:43:00,61.0,45.0,-100.00,ENE,69,6.0,10.0,54,-99.99,,,-99.99,0.030000,,2013-07-25 11:43:00,
2013-07-25 05:52:00,61.0,45.0,-100.00,NE,56,9.0,10.0,54,-99.99,,,-99.99,0.050000,,2013-07-25 11:52:00,
2013-07-25 06:02:00,63.0,45.0,-100.00,ENE,64,9.0,10.0,52,-99.99,,,-99.99,0.040000,,2013-07-25 12:02:00,
2013-07-25 06:22:00,61.0,45.0,-100.00,ENE,66,9.0,9.0,56,-99.99,,,-99.99,0.150000,,2013-07-25 12:22:00,
2013-07-25 06:32:00,60.0,45.0,-100.00,ENE,64,9.0,10.0,57,-99.99,,,-99.99,0.200000,,2013-07-25 12:32:00,
2013-07-25 06:44:00,61.0,45.0,-100.00,ENE,57,9.0,9.0,56,-99.99,,,-99.99,0.610000,,2013-07-25 12:44:00,
2013-07-25 06:53:00,59.0,45.0,-100.00,ENE,65,8.0,8.0,59,-99.99,,,-99.99,2.030000,,2013-07-25 12:53:00,
2013-07-25 07:02:00,59.0,45.0,-100.00,ENE,65,8.0,8.0,59,-99.99,,,-99.99,2.030000,,2013-07-25 13:02:00,
2013-07-25 07:12:00,59.0,45.0,-100.00,ENE,61,8.0,9.0,58,-99.99,,,-99.99,4.750000,,2013-07-25 13:12:00,
2013-07-25 07:42:00,61.0,45.0,-100.00,ENE,66,10.0,10.0,54,-99.99,,,-99.99,63.080002,,2013-07-25 13:42:00,
2013-07-25 07:52:00,62.0,45.0,-100.00,ENE,66,7.0,10.0,54,-99.99,,,-99.99,61.020000,,2013-07-25 13:52:00,
2013-07-25 08:22:00,64.0,45.0,-100.00,ENE,71,9.0,10.0,51,-99.99,,,-99.99,223.399994,,2013-07-25 14:22:00,
2013-07-25 08:43:00,65.0,45.0,-100.00,ENE,63,8.0,10.0,47,-99.99,,,-99.99,262.899994,,2013-07-25 14:43:00,
2013-07-25 08:53:00,64.0,45.0,-100.00,ENE,67,9.0,9.0,49,-99.99,,,-99.99,305.100006,,2013-07-25 14:53:00,
2013-07-25 09:02:00,65.0,44.0,-100.00,ENE,69,9.0,10.0,48,-99.99,,,-99.99,404.200012,,2013-07-25 15:02:00,
2013-07-25 09:12:00,65.0,44.0,-100.00,ENE,71,10.0,10.0,46,-99.99,,,-99.99,484.600006,,2013-07-25 15:12:00,
2013-07-25 09:22:00,65.0,44.0,-100.00,ENE,71,10.0,10.0,46,-99.99,,,-99.99,484.600006,,2013-07-25 15:22:00,
2013-07-25 09:43:00,66.0,45.0,-100.00,ENE,68,8.0,9.0,47,-99.99,,,-99.99,309.399994,,2013-07-25 15:43:00,
2013-07-25 10:22:00,70.0,45.0,-100.00,ENE,72,5.0,9.0,40,-99.99,,,-99.99,818.000000,,2013-07-25 16:22:00,
2013-07-25 10:45:00,69.0,45.0,-100.00,ENE,65,7.0,9.0,42,-99.99,,,-99.99,494.000000,,2013-07-25 16:45:00,
2013-07-25 10:53:00,70.0,46.0,-100.00,ENE,76,5.0,8.0,42,-99.99,,,-99.99,407.000000,,2013-07-25 16:53:00,
2013-07-25 11:02:00,70.0,47.0,-100.00,East,79,4.0,8.0,43,-99.99,,,-99.99,329.399994,,2013-07-25 17:02:00,
2013-07-25 11:12:00,70.0,47.0,-100.00,East,79,4.0,8.0,43,-99.99,,,-99.99,329.399994,,2013-07-25 17:12:00,
2013-07-25 11:22:00,71.0,47.0,-100.00,East,90,3.0,6.0,42,-99.99,,,-99.99,330.500000,,2013-07-25 17:22:00,
2013-07-25 11:43:00,74.0,49.0,-100.00,SSW,202,5.0,9.0,40,-99.99,,,-99.99,554.799988,,2013-07-25 17:43:00,
2013-07-25 11:53:00,76.0,41.0,-100.00,SW,234,8.0,13.0,29,-99.99,,,-99.99,967.000000,,2013-07-25 17:53:00,
2013-07-25 12:02:00,75.0,44.0,-100.00,West,276,6.0,12.0,32,-99.99,,,-99.99,485.000000,,2013-07-25 18:02:00,
2013-07-25 12:33:00,78.0,38.0,-100.00,SW,230,9.0,13.0,23,-99.99,,,-99.99,954.000000,,2013-07-25 18:33:00,
2013-07-25 12:43:00,79.0,38.0,-100.00,SW,220,11.0,15.0,22,-99.99,,,-99.99,1035.000000,,2013-07-25 18:43:00,
2013-07-25 12:52:00,78.0,38.0,-100.00,SW,223,10.0,13.0,23,-99.99,,,-99.99,892.000000,,2013-07-25 18:52:00,
2013-07-25 13:02:00,79.0,40.0,-100.00,SSW,203,7.0,13.0,24,-99.99,,,-99.99,1073.000000,,2013-07-25 19:02:00,
2013-07-25 13:12:00,77.0,40.0,-100.00,WSW,247,10.0,12.0,25,-99.99,,,-99.99,532.500000,,2013-07-25 19:12:00,
2013-07-25 13:22:00,77.0,40.0,-100.00,WSW,247,10.0,12.0,25,-99.99,,,-99.99,532.500000,,2013-07-25 19:22:00,
2013-07-25 13:42:00,81.0,31.0,-100.00,West,267,5.0,12.0,16,-99.99,,,-99.99,1013.000000,,2013-07-25 19:42:00,
2013-07-25 13:52:00,81.0,32.0,-100.00,WSW,237,10.0,15.0,17,-99.99,,,-99.99,1012.000000,,2013-07-25 19:52:00,
2013-07-25 14:32:00,81.0,33.0,-100.00,West,269,10.0,19.0,17,-99.99,,,-99.99,1003.000000,,2013-07-25 20:32:00,
2013-07-25 14:43:00,81.0,29.0,-100.00,SW,232,8.0,18.0,15,-99.99,,,-99.99,998.000000,,2013-07-25 20:43:00,
2013-07-25 14:53:00,81.0,29.0,-100.00,SW,217,11.0,18.0,14,-99.99,,,-99.99,991.000000,,2013-07-25 20:53:00,
2013-07-25 15:12:00,81.0,31.0,-100.00,SSW,209,12.0,20.0,16,-99.99,,,-99.99,968.000000,,2013-07-25 21:12:00,
2013-07-25 15:22:00,82.0,29.0,-100.00,WSW,241,13.0,16.0,14,-99.99,,,-99.99,941.000000,,2013-07-25 21:22:00,
2013-07-25 15:32:00,82.0,29.0,-100.00,WSW,241,13.0,16.0,14,-99.99,,,-99.99,941.000000,,2013-07-25 21:32:00,
2013-07-25 15:44:00,81.0,35.0,-100.00,SW,224,12.0,18.0,19,-99.99,,,-99.99,928.000000,,2013-07-25 21:44:00,
2013-07-25 15:52:00,81.0,32.0,-100.00,WSW,242,9.0,16.0,17,-99.99,,,-99.99,917.000000,,2013-07-25 21:52:00,
2013-07-25 16:12:00,81.0,31.0,-100.00,SW,234,12.0,21.0,16,-99.99,,,-99.99,882.000000,,2013-07-25 22:12:00,
2013-07-25 16:22:00,82.0,32.0,-100.00,SW,228,17.0,21.0,16,-99.99,,,-99.99,862.000000,,2013-07-25 22:22:00,
2013-07-25 16:32:00,82.0,34.0,-100.00,SW,233,10.0,22.0,18,-99.99,,,-99.99,836.000000,,2013-07-25 22:32:00,
2013-07-25 16:43:00,82.0,35.0,-100.00,SW,223,15.0,21.0,18,-99.99,,,-99.99,815.000000,,2013-07-25 22:43:00,
2013-07-25 16:52:00,81.0,36.0,-100.00,SW,220,12.0,19.0,20,-99.99,,,-99.99,793.299988,,2013-07-25 22:52:00,
2013-07-25 17:12:00,82.0,32.0,-100.00,WSW,241,11.0,20.0,16,-99.99,,,-99.99,740.400024,,2013-07-25 23:12:00,
2013-07-25 17:32:00,81.0,34.0,-100.00,WSW,240,13.0,18.0,18,-99.99,,,-99.99,682.299988,,2013-07-25 23:32:00,
2013-07-25 17:43:00,81.0,35.0,-100.00,SW,228,17.0,20.0,18,-99.99,,,-99.99,624.299988,,2013-07-25 23:43:00,
2013-07-25 17:52:00,81.0,35.0,-100.00,SW,228,17.0,20.0,18,-99.99,,,-99.99,624.299988,,2013-07-25 23:52:00,
2013-07-25 18:02:00,81.0,36.0,-100.00,SW,235,12.0,22.0,20,-99.99,,,-99.99,596.599976,,2013-07-26 00:02:00,
2013-07-25 18:11:00,81.0,32.0,-100.00,WSW,250,12.0,18.0,17,-99.99,,,-99.99,560.900024,,2013-07-26 00:11:00,
2013-07-25 18:22:00,81.0,33.0,-100.00,West,264,6.0,15.0,17,-99.99,,,-99.99,529.799988,,2013-07-26 00:22:00,
2013-07-25 18:43:00,80.0,32.0,-100.00,WSW,251,13.0,18.0,17,-99.99,,,-99.99,465.899994,,2013-07-26 00:43:00,
2013-07-25 18:52:00,81.0,32.0,-100.00,WSW,241,13.0,20.0,17,-99.99,,,-99.99,436.899994,,2013-07-26 00:52:00,
2013-07-25 19:12:00,80.0,34.0,-100.00,SW,236,11.0,16.0,18,-99.99,,,-99.99,404.100006,,2013-07-26 01:12:00,
2013-07-25 19:22:00,79.0,35.0,-100.00,SW,236,10.0,16.0,19,-99.99,,,-99.99,335.500000,,2013-07-26 01:22:00,
2013-07-25 19:43:00,79.0,33.0,-100.00,WSW,254,7.0,11.0,18,-99.99,,,-99.99,245.199997,,2013-07-26 01:43:00,
2013-07-25 20:02:00,79.0,34.0,-100.00,WSW,257,5.0,10.0,19,-99.99,,,-99.99,203.699997,,2013-07-26 02:02:00,
2013-07-25 20:12:00,78.0,33.0,-100.00,West,262,5.0,6.0,18,-99.99,,,-99.99,175.399994,,2013-07-26 02:12:00,
2013-07-25 20:22:00,78.0,37.0,-100.00,NW,318,2.0,6.0,22,-99.99,,,-99.99,146.100006,,2013-07-26 02:22:00,
2013-07-25 20:32:00,77.0,35.0,-100.00,North,349,3.0,4.0,22,-99.99,,,-99.99,116.199997,,2013-07-26 02:32:00,
2013-07-25 20:43:00,74.0,37.0,-100.00,North,2,4.0,5.0,25,-99.99,,,-99.99,18.020000,,2013-07-26 02:43:00,
2013-07-25 21:12:00,73.0,35.0,-100.00,North,8,4.0,5.0,25,-99.99,,,-99.99,8.250000,,2013-07-26 03:12:00,
2013-07-25 21:22:00,73.0,35.0,-100.00,North,8,4.0,5.0,25,-99.99,,,-99.99,8.250000,,2013-07-26 03:22:00,
2013-07-25 21:32:00,73.0,35.0,-100.00,North,8,4.0,5.0,25,-99.99,,,-99.99,8.250000,,2013-07-26 03:32:00,
2013-07-25 21:53:00,69.0,35.0,-100.00,ESE,122,0.0,3.0,27,-99.99,,,-99.99,0.100000,,2013-07-26 03:53:00,
2013-07-25 22:02:00,70.0,34.0,-100.00,NW,305,0.0,3.0,26,-99.99,,,-99.99,0.000000,,2013-07-26 04:02:00,
2013-07-25 22:22:00,72.0,34.0,-100.00,NNW,340,6.0,9.0,25,-99.99,,,-99.99,0.000000,,2013-07-26 04:22:00,
2013-07-25 23:11:00,71.0,33.0,-100.00,NNE,14,5.0,7.0,24,-99.99,,,-99.99,0.000000,,2013-07-26 05:11:00,
2013-07-25 23:22:00,70.0,34.0,-100.00,North,11,3.0,5.0,26,-99.99,,,-99.99,0.000000,,2013-07-26 05:22:00,
2013-07-25 23:32:00,69.0,34.0,-100.00,NE,45,3.0,5.0,28,-99.99,,,-99.99,0.000000,,2013-07-26 05:32:00,
2013-07-25 23:43:00,67.0,35.0,-100.00,ENE,59,4.0,5.0,29,-99.99,,,-99.99,0.000000,,2013-07-26 05:43:00,
2013-07-25 23:52:00,68.0,34.0,-100.00,ENE,75,4.0,4.0,28,-99.99,,,-99.99,0.000000,,2013-07-26 05:52:00,